User: anonymous
Location: Unspecified
(0.0000°N, 0.0000°E)
Time: 17:19:06
(UTC+02:00)
Language:

Iridium 15 - Orbit

View from above orbital plane
View from above orbital plane
View from above satellite
View from above satellite

Ground track
Ground track

The orbit data is extracted from the following two-line orbital elements,

1 24869U 97034A   14235.50261506  .00000107  00000-0  31178-4 0   333
2 24869 086.3929 091.8324 0002105 101.5552 303.1279 14.34220540896476
Epoch (UTC): 23 August 2014 12:03:45
Eccentricity: 0.0002105
inclination: 86.3929°
perigee height: 776 km
apogee height: 779 km
right ascension of ascending node: 91.8324°
argument of perigee: 101.5552°
revolutions per day: 14.34220540
mean anomaly at epoch: 303.1279°
orbit number at epoch: 89647

The dashed part of the orbit path shows where the satellite is in the earth's shadow,  

DLR